When you browse on this site, cookies collect data to enhance your experience and personalize the content and advertising you see.
Visit our Privacy Policy to learn more. By continuing to use the site, you agree to this use of cookies and data.
  • en France
  • Liste des pays
  • À 7 jours
  • Température de l'eau
  • Carte météo
  • Widgets météo
  • user-avatar
    Se connecter

    Météo par heure à Bajdabo

    Ce jour, 19 Août, Lundi

    Heure Température Précipitation Vent Pression Humidité
    00:00 +22°C° 0 mm 7 m/s 722 mmHg 72%
    01:00 +22°C° 0 mm 7 m/s 722 mmHg 74%
    02:00 +22°C° 0 mm 6 m/s 722 mmHg 76%
    03:00 +21°C° 0 mm 5 m/s 722 mmHg 78%
    04:00 +21°C° 0 mm 5 m/s 722 mmHg 80%
    05:00 +21°C° 0 mm 5 m/s 723 mmHg 81%
    06:00 +21°C° 0 mm 5 m/s 723 mmHg 83%
    07:00 +22°C° 0 mm 6 m/s 724 mmHg 75%
    08:00 +24°C° 0 mm 6 m/s 724 mmHg 67%
    09:00 +26°C° 0 mm 7 m/s 725 mmHg 59%
    10:00 +28°C° 0 mm 7 m/s 724 mmHg 50%
    11:00 +31°C° 0 mm 8 m/s 724 mmHg 40%
    12:00 +33°C° 0 mm 8 m/s 723 mmHg 31%
    13:00 +33°C° 0 mm 8 m/s 723 mmHg 31%
    14:00 +34°C° 0 mm 8 m/s 722 mmHg 31%
    15:00 +34°C° 0 mm 8 m/s 721 mmHg 31%
    16:00 +33°C° 0 mm 8 m/s 721 mmHg 32%
    17:00 +33°C° 0 mm 7 m/s 721 mmHg 33%
    18:00 +32°C° 0 mm 7 m/s 720 mmHg 35%
    19:00 +30°C° 0 mm 7 m/s 721 mmHg 42%
    20:00 +28°C° 0 mm 8 m/s 721 mmHg 49%
    21:00 +27°C° 0 mm 9 m/s 722 mmHg 56%
    22:00 +26°C° 0 mm 8 m/s 722 mmHg 61%
    23:00 +24°C° 0 mm 8 m/s 722 mmHg 66%

    Demain, 20 Août, Mardi

    Heure Température Précipitation Vent Pression Humidité
    00:00 +23°C° 0 mm 7 m/s 723 mmHg 71%
    01:00 +23°C° 0 mm 7 m/s 722 mmHg 74%
    02:00 +22°C° 0 mm 7 m/s 722 mmHg 78%
    03:00 +22°C° 0 mm 6 m/s 722 mmHg 81%
    04:00 +22°C° 0 mm 7 m/s 722 mmHg 80%
    05:00 +22°C° 0 mm 7 m/s 723 mmHg 79%
    06:00 +22°C° 0 mm 7 m/s 723 mmHg 78%
    07:00 +23°C° 0 mm 7 m/s 723 mmHg 72%
    08:00 +26°C° 0 mm 7 m/s 724 mmHg 67%
    09:00 +27°C° 0 mm 8 m/s 724 mmHg 61%
    10:00 +29°C° 0 mm 8 m/s 724 mmHg 54%
    11:00 +31°C° 0 mm 8 m/s 723 mmHg 48%
    12:00 +33°C° 0 mm 8 m/s 723 mmHg 41%
    13:00 +33°C° 0 mm 8 m/s 722 mmHg 39%
    14:00 +34°C° 0 mm 8 m/s 722 mmHg 37%
    15:00 +34°C° 0 mm 8 m/s 721 mmHg 35%
    16:00 +33°C° 0 mm 8 m/s 721 mmHg 39%
    17:00 +32°C° 0 mm 8 m/s 721 mmHg 43%
    18:00 +30°C° 0 mm 7 m/s 721 mmHg 46%
    19:00 +29°C° 0 mm 7 m/s 721 mmHg 50%
    20:00 +29°C° 0 mm 8 m/s 722 mmHg 54%
    21:00 +28°C° 0 mm 8 m/s 723 mmHg 58%
    22:00 +27°C° 0 mm 8 m/s 723 mmHg 63%
    23:00 +26°C° 0 mm 7 m/s 723 mmHg 68%

    Après-demain, 21 Août, Mercredi

    Heure Température Précipitation Vent Pression Humidité
    00:00 +24°C° 0 mm 7 m/s 723 mmHg 73%
    01:00 +23°C° 0 mm 7 m/s 723 mmHg 76%
    02:00 +23°C° 0 mm 7 m/s 722 mmHg 80%
    03:00 +22°C° 0 mm 6 m/s 722 mmHg 83%
    04:00 +22°C° 0 mm 6 m/s 722 mmHg 83%
    05:00 +23°C° 0 mm 7 m/s 723 mmHg 82%
    06:00 +23°C° 0 mm 7 m/s 723 mmHg 82%
    07:00 +24°C° 0 mm 7 m/s 723 mmHg 76%
    08:00 +26°C° 0 mm 7 m/s 724 mmHg 71%
    09:00 +27°C° 0 mm 8 m/s 724 mmHg 65%
    10:00 +28°C° 0 mm 8 m/s 724 mmHg 62%
    11:00 +29°C° 0 mm 8 m/s 724 mmHg 58%
    12:00 +31°C° 0 mm 8 m/s 723 mmHg 55%
    13:00 +31°C° 0 mm 8 m/s 723 mmHg 52%
    14:00 +32°C° 0 mm 8 m/s 722 mmHg 49%
    15:00 +32°C° 0 mm 8 m/s 721 mmHg 47%
    16:00 +32°C° 0 mm 8 m/s 721 mmHg 48%
    17:00 +31°C° 0 mm 8 m/s 721 mmHg 50%
    18:00 +30°C° 0 mm 7 m/s 721 mmHg 52%
    19:00 +29°C° 0 mm 6 m/s 721 mmHg 55%
    20:00 +28°C° 0 mm 6 m/s 722 mmHg 57%
    21:00 +27°C° 0 mm 5 m/s 722 mmHg 60%
    22:00 +26°C° 0 mm 5 m/s 722 mmHg 66%
    23:00 +26°C° 0 mm 6 m/s 722 mmHg 71%

    22 Août, Jeudi

    Heure Température Précipitation Vent Pression Humidité
    00:00 +24°C° 0 mm 7 m/s 722 mmHg 77%
    01:00 +23°C° 0 mm 7 m/s 722 mmHg 78%
    02:00 +23°C° 0 mm 7 m/s 722 mmHg 79%
    03:00 +23°C° 0 mm 7 m/s 722 mmHg 80%
    04:00 +23°C° 0 mm 7 m/s 722 mmHg 81%
    05:00 +23°C° 0 mm 6 m/s 723 mmHg 82%
    06:00 +22°C° 0 mm 6 m/s 723 mmHg 83%
    07:00 +24°C° 0 mm 7 m/s 723 mmHg 77%
    08:00 +26°C° 0 mm 7 m/s 724 mmHg 71%
    09:00 +27°C° 0 mm 8 m/s 724 mmHg 64%
    10:00 +29°C° 0 mm 8 m/s 724 mmHg 57%
    11:00 +31°C° 0 mm 8 m/s 723 mmHg 50%
    12:00 +33°C° 0 mm 9 m/s 723 mmHg 44%
    13:00 +33°C° 0 mm 9 m/s 722 mmHg 43%
    14:00 +34°C° 0 mm 9 m/s 721 mmHg 42%
    15:00 +34°C° 0 mm 9 m/s 721 mmHg 41%
    16:00 +33°C° 0 mm 8 m/s 721 mmHg 44%
    17:00 +32°C° 0 mm 8 m/s 721 mmHg 47%
    18:00 +30°C° 0 mm 7 m/s 720 mmHg 50%
    19:00 +30°C° 0 mm 7 m/s 721 mmHg 53%
    20:00 +29°C° 0 mm 7 m/s 721 mmHg 55%
    21:00 +29°C° 0 mm 6 m/s 722 mmHg 58%
    22:00 +28°C° 0 mm 7 m/s 722 mmHg 63%
    23:00 +27°C° 0 mm 7 m/s 722 mmHg 69%

    23 Août, Vendredi

    Heure Température Précipitation Vent Pression Humidité
    00:00 +24°C° 0 mm 7 m/s 722 mmHg 75%
    01:00 +24°C° 0 mm 7 m/s 722 mmHg 77%
    02:00 +24°C° 0 mm 7 m/s 721 mmHg 80%
    03:00 +23°C° 0 mm 7 m/s 721 mmHg 82%
    04:00 +24°C° 0.1 mm 7 m/s 722 mmHg 81%
    05:00 +24°C° 0.1 mm 7 m/s 722 mmHg 80%
    06:00 +24°C° 0.1 mm 7 m/s 722 mmHg 79%
    07:00 +26°C° 0.1 mm 7 m/s 723 mmHg 74%
    08:00 +27°C° 0.1 mm 7 m/s 723 mmHg 69%
    09:00 +28°C° 0.1 mm 7 m/s 724 mmHg 64%
    10:00 +29°C° 0 mm 7 m/s 723 mmHg 59%
    11:00 +30°C° 0 mm 7 m/s 723 mmHg 54%
    12:00 +32°C° 0 mm 7 m/s 722 mmHg 49%
    13:00 +32°C° 0 mm 7 m/s 722 mmHg 48%
    14:00 +33°C° 0 mm 7 m/s 721 mmHg 47%
    15:00 +33°C° 0 mm 6 m/s 720 mmHg 47%
    16:00 +32°C° 0.2 mm 7 m/s 720 mmHg 50%
    17:00 +30°C° 0.2 mm 7 m/s 721 mmHg 52%
    18:00 +30°C° 0.2 mm 7 m/s 721 mmHg 55%
    19:00 +29°C° 0.1 mm 8 m/s 721 mmHg 59%
    20:00 +28°C° 0.1 mm 8 m/s 722 mmHg 63%
    21:00 +27°C° 0.1 mm 8 m/s 722 mmHg 67%
    22:00 +26°C° 0 mm 8 m/s 722 mmHg 70%
    23:00 +24°C° 0 mm 8 m/s 722 mmHg 74%

    24 Août, Samedi

    Heure Température Précipitation Vent Pression Humidité
    00:00 +24°C° 0 mm 7 m/s 722 mmHg 77%
    01:00 +23°C° 0 mm 7 m/s 722 mmHg 79%
    02:00 +23°C° 0 mm 7 m/s 722 mmHg 82%
    03:00 +23°C° 0 mm 6 m/s 722 mmHg 84%
    04:00 +23°C° 0 mm 6 m/s 722 mmHg 85%
    05:00 +23°C° 0 mm 5 m/s 723 mmHg 86%
    06:00 +23°C° 0 mm 5 m/s 723 mmHg 86%
    07:00 +25°C° 0.1 mm 5 m/s 724 mmHg 80%
    08:00 +26°C° 0.1 mm 6 m/s 724 mmHg 73%
    09:00 +27°C° 0.1 mm 7 m/s 725 mmHg 67%
    10:00 +28°C° 0.3 mm 6 m/s 724 mmHg 63%
    11:00 +29°C° 0.3 mm 6 m/s 724 mmHg 59%
    12:00 +30°C° 0.3 mm 6 m/s 723 mmHg 55%
    13:00 +30°C° 0.3 mm 6 m/s 723 mmHg 54%
    14:00 +30°C° 0.3 mm 6 m/s 722 mmHg 52%
    15:00 +32°C° 0.3 mm 6 m/s 721 mmHg 51%
    16:00 +30°C° 0.4 mm 6 m/s 721 mmHg 53%
    17:00 +29°C° 0.4 mm 6 m/s 721 mmHg 56%
    18:00 +28°C° 0.4 mm 6 m/s 721 mmHg 58%
    19:00 +28°C° 0.1 mm 7 m/s 722 mmHg 62%
    20:00 +27°C° 0.1 mm 7 m/s 723 mmHg 65%
    21:00 +26°C° 0.1 mm 7 m/s 723 mmHg 69%
    22:00 +26°C° 0 mm 7 m/s 723 mmHg 73%
    23:00 +24°C° 0 mm 7 m/s 723 mmHg 77%
    Voir plus